Hourly Data Report for October 15, 2016

All times are specified in Local Standard Time (LST). Add 1 hour to adjust for Daylight Saving Time where and when it is observed.

KUGLUKTUK A
NUNAVUT

67°49'00.000" N
115°08'38.000" W
22.60 m
2300903
71938
YCO

Download Data

Hourly Data (October 2016)
Hourly Data Report for October 15, 2016
Temp Definition
°C
Dew Point Temp Definition
°C
Rel Hum Definition
%
Wind Dir Definition
10's deg

Wind Spd Definition
km/h
Visibility Definition
km
Stn Press Definition
kPa
Hmdx Definition


Wind Chill Definition


Weather Definition


TIME
00:00 Legend Double Dagger -7.6 -11.0 77 25 19 16.1 100.79   -15 Snow
01:00 Legend Double Dagger -7.8 -11.0 78 24 18 16.1 100.77   -15 Snow
02:00 Legend Double Dagger -7.8 -11.3 76 24 22 16.1 100.74   -15 Snow
03:00 Legend Double Dagger -7.9 -11.8 74 25 23 19.3 100.69   -16 Snow
04:00 Legend Double Dagger -8.4 -12.2 74 24 20 19.3 100.66   -16 Snow
05:00 Legend Double Dagger -9.2 -12.9 75 26 22 19.3 100.62   -17 Snow,Blowing Snow
06:00 Legend Double Dagger -10.7 -13.7 79 25 23 24.1 100.60   -19 LegendNANA
07:00 Legend Double Dagger -11.8 -15.1 77 26 26 16.1 100.57   -21 LegendNANA
08:00 Legend Double Dagger -12.8 -15.4 81 24 26 24.1 100.55   -23 Mainly Clear
09:00 Legend Double Dagger -12.9 -15.8 79 24 28 24.1 100.54   -23 LegendNANA
10:00 Legend Double Dagger -11.3 -14.7 76 23 23 24.1 100.54   -20 LegendNANA
11:00 Legend Double Dagger -10.0 -13.8 74 24 28 24.1 100.52   -19 Cloudy
12:00 Legend Double Dagger -9.8 -13.3 76 22 24 24.1 100.54   -18 LegendNANA
13:00 Legend Double Dagger -9.0 -12.3 77 24 21 19.3 100.53   -17 LegendNANA
14:00 Legend Double Dagger -8.6 -11.5 80 22 20 16.1 100.53   -16 Snow Grains
15:00 Legend Double Dagger -9.7 -12.7 79 22 21 19.3 100.53   -18 LegendNANA
16:00 Legend Double Dagger -8.8 -11.8 79 23 21 16.1 100.52   -17 LegendNANA
17:00 Legend Double Dagger -8.5 -11.2 81 23 18 12.9 100.53   -16 Snow Pellets
18:00 Legend Double Dagger -8.4 -10.8 83 23 14 9.7 100.54   -15 Snow Pellets
19:00 Legend Double Dagger -8.3 -10.7 83 23 16 12.9 100.56   -15 Snow Pellets
20:00 Legend Double Dagger -8.2 -10.4 84 23 16 12.9 100.58   -15 Snow Pellets
21:00 Legend Double Dagger -8.0 -9.9 86 23 15 16.1 100.61   -14 Snow Pellets
22:00 Legend Double Dagger -7.7 -9.8 85 24 16 16.1 100.63   -14 Snow
23:00 Legend Double Dagger -7.6 -9.6 86 25 16 9.7 100.65   -14 Snow

Notes on Data Quality.

Legend

  • E = Estimated
  • M = Missing
  • NA = Not Available
  • ‡ = Partner data that is not subject to review by the National Climate Archives
Date modified: